Location: London
(51.5074°N, 0.1278°W)
Time: 15:10:07
(UTC+01:00)

ISS - Pass Details

Date: 03 April 2018
Orbit: 403 x 406 km, 51.6° (Epoch: 22 April)

Event Time Altitude Azimuth Distance (km) Brightness Sun altitude
Rises 22:09:44 0° 284° (WNW) 2,337 1.1 -21.9°
Reaches altitude 10° 22:11:53 10° 277° (W) 1,474 -0.3 -22.2°
Enters shadow 22:13:56 30° 251° (WSW) 765 -2.2 -22.4°
